Tracking 22283 objects as of 28-Jan-2021
HD Live streaming from Space Station
objects crossing your sky now

STARLINK-1538

Track STARLINK-1538 now!
10-day predictions
STARLINK-1538 is classified as:


NORAD ID: 46071
Int'l Code: 2020-055AW
Perigee: 555.0 km
Apogee: 558.7 km
Inclination: 53.0 °
Period: 95.6 minutes
Semi major axis: 6927 km
RCS: Unknown
Launch date: August 7, 2020
Source: United States (US)
Launch site: AIR FORCE EASTERN TEST RANGE (AFETR)
aabbcc
Your satellite tracking list
Your tracking list is empty




NASA's NSSDC Master Catalog

Two Line Element Set (TLE):
1 46071U 20055AW  21027.89805874  .00000697  00000-0  66984-4 0  9990
2 46071  53.0011 196.9706 0002630  92.3717 267.7572 15.05590871 27947
Source of the keplerian elements: AFSPC